Skip Page Navigation
NASA JPL Caltech
NASA Logo - Jet Propulsion Laboratory + View the NASA Portal
+ Center for Near-Earth Object Studies
JPL Home Earth Solar System Stars & Galaxies Technology
JPL Solar System Dynamics
BODIES ORBITS EPHEMERIDES TOOLS PHYSICAL DATA DISCOVERY FAQ SITE MAP
JPL Small-Body Database Browser
Search: [ help ]  
154754 (2004 PO9)
Classification: Main-belt Asteroid          SPK-ID: 2154754
Ephemeris | Orbit Diagram | Orbital Elements | Mission Design | Physical Parameters | Discovery Circumstances | Close-Approach Data ]

[ show orbit diagram ]
Orbital Elements at Epoch 2459000.5 (2020-May-31.0) TDB
Reference: JPL 16 (heliocentric ecliptic J2000)
 Element Value Uncertainty (1-sigma)   Units 
e .1735197877452381 5.1167e-08  
a 2.683051231795324 2.481e-08 au
q 2.2174887515446 1.3237e-07 au
i 11.92515224893831 5.3079e-06 deg
node 149.4855962322092 2.4674e-05 deg
peri 138.7557881098517 3.1838e-05 deg
M 229.906518018424 2.7719e-05 deg
tp 2459580.589376528015
(2022-Jan-01.08937653)
0.00012964 TDB
period 1605.247029821682
4.39
2.2265e-05
6.096e-08
d
yr
n .2242645482670604 3.1106e-09 deg/d
Q 3.148613712046048 2.9115e-08 au
  Orbit Determination Parameters
   # obs. used (total)      300  
   data-arc span      7623 days (20.87 yr)  
   first obs. used      1999-03-20  
   last obs. used      2020-02-01  
   planetary ephem.      DE431  
   SB-pert. ephem.      SB431-N16  
   condition code      0  
   norm. resid. RMS      .55815  
   source      ORB  
   producer      Otto Matic  
   solution date      2020-Feb-24 09:34:10  

Additional Information
 Earth MOID = 1.21657 au 
 Jupiter MOID = 2.13629 au 
 T_jup = 3.323 
[ show covariance matrix ]

Ephemeris | Orbit Diagram | Orbital Elements | Mission Design | Physical Parameters | Discovery Circumstances | Close-Approach Data ]

Physical Parameter Table
Parameter Symbol Value Units Sigma Reference Notes
absolute magnitude H 16.0   n/a MPO459713  
diameter diameter 4.282 km 0.275 urn:nasa:pds:neowise_diameters_albedos::2.0[mainbelt] (http://adsabs.harvard.edu/abs/2011ApJ...741...68M)  
geometric albedo albedo 0.035   0.006 urn:nasa:pds:neowise_diameters_albedos::2.0[mainbelt] (http://adsabs.harvard.edu/abs/2011ApJ...741...68M)  

154754 (2004 PO9)          Discovered 2004-Aug-06 by CINEOS at Campo Imperatore
Reference: 20070402/Numbers.arcLast Updated: 2007-04-04

[ hide close-approach data ]
Close-Approach Data   ...sorted by Date/Time (TDB)
Date/Time (TDB) Time Uncertainty
(days_HH:MM)
Body Nominal Distance (au) Minimum Distance (au) Maximum Distance (au) V-relative (km/s) V-infinity (km/s) JD (TDB) Time Uncertainty (minutes) Semi-major axis (km) Semi-minor axis (km) range-LOV angle (deg) N-sigma BP Orbit Ref. Reference Modified
2072-Sep-09 06:37 < 00:01 Inter 0.0436584655387871 0.0436532416711975 0.0436636928066747 8.04750378681395 8.04750374514725 2478094.775797371 0.689388473099192 677.449786739899 61.910898170242 67.9688170218785 97833.9836122292 T 16 CATAB v2.0f-lin.ifort 2020-Feb-24 09:34:13 2020-Feb-24 09:34
Ephemeris | Orbit Diagram | Orbital Elements | Mission Design | Physical Parameters | Discovery Circumstances | Close-Approach Data ]
ABOUT SSD CREDITS/AWARDS PRIVACY/COPYRIGHT GLOSSARY LINKS
FirstGov 2020-Jul-05 07:40 UT
(server date/time)  
NASA Home Page
Site Manager:   Ryan S. Park
Webmaster  Alan B. Chamberlin